EW1675 Weather Reports


time (UTC)temp
C
wind
direction
speed
KPH
gust
KPH
rain 1hr
cm
rain 24hr
cm
rain mn
cm
humidity
%
barometer
mb
20260504151043 21 170 1.6 9.7 0.00 0.00 0.00 43 1014.2
20260504141001 18 164 1.6 6.4 0.00 0.00 0.00 50 1014.3
20260504081024 8 135 0.0 1.6 0.00 0.00 0.00 67 1015.6
20260504080105 8 135 0.0 1.6 0.00 0.00 0.00 68 1015.6
20260504050023 6 0 0.0 0.0 0.00 0.00 0.00 75 1016.1
20260504045105 6 0 0.0 0.0 0.00 0.00 0.00 75 1016.1
20260504044003 6 0 0.0 0.0 0.00 0.00 0.00 75 1016.2
20260504043023 6 0 0.0 0.0 0.00 0.00 0.00 74 1016.1
20260504042002 6 0 0.0 0.0 0.00 0.00 0.00 74 1016.0
20260504041023 6 0 0.0 0.0 0.00 0.00 0.00 73 1015.9
20260504040023 6 0 0.0 0.0 0.00 0.00 0.00 73 1015.8
20260504035023 6 0 0.0 0.0 0.00 0.00 0.00 73 1016.1
20260504034003 7 0 0.0 0.0 0.00 0.00 0.00 72 1016.1
20260504033002 7 0 0.0 0.0 0.00 0.00 0.00 71 1016.1
20260504032044 7 0 0.0 0.0 0.00 0.00 0.00 71 1016.1
20260504031002 7 0 0.0 0.0 0.00 0.00 0.00 70 1015.8
20260504030002 7 0 0.0 0.0 0.00 0.00 0.00 69 1015.8
20260504025024 8 0 0.0 0.0 0.00 0.00 0.00 68 1015.7
20260504024023 8 0 0.0 0.0 0.00 0.00 0.00 67 1015.6
20260504023002 8 0 0.0 0.0 0.00 0.00 0.00 66 1015.6
20260504022002 8 0 0.0 0.0 0.00 0.00 0.00 64 1015.6
20260504021002 9 0 0.0 0.0 0.00 0.00 0.00 62 1015.6
20260504020023 9 0 0.0 0.0 0.00 0.00 0.00 62 1015.4
20260504015024 10 0 0.0 0.0 0.00 0.00 0.00 60 1015.3
20260504014002 10 0 0.0 0.0 0.00 0.00 0.00 58 1015.3
20260504013002 11 0 0.0 0.0 0.00 0.00 0.00 56 1015.2
20260504012002 11 0 0.0 0.0 0.00 0.00 0.00 55 1015.1
20260504011003 11 0 0.0 0.0 0.00 0.00 0.00 53 1015.1
20260504010002 12 0 0.0 0.0 0.00 0.00 0.00 51 1015.1
20260504005045 12 0 0.0 0.0 0.00 0.00 0.00 49 1015.1
20260504004003 13 0 0.0 0.0 0.00 0.00 0.00 49 1015.0
20260504003023 13 0 0.0 0.0 0.00 0.00 0.00 47 1014.8
20260504002002 14 0 0.0 0.0 0.00 0.00 0.00 46 1014.8
20260504001004 14 0 0.0 0.0 0.00 0.00 0.00 44 1014.8
20260504000003 15 0 0.0 0.0 0.00 0.00 0.00 41 1014.6
20260503235003 15 0 0.0 0.0 0.00 0.00 0.00 38 1014.5
20260503234002 16 0 0.0 0.0 0.00 0.00 0.00 36 1014.5
20260503233024 16 132 0.0 3.2 0.00 0.00 0.00 36 1014.5
20260503232045 16 111 0.0 1.6 0.00 0.00 0.00 35 1014.4
20260503231003 16 113 0.0 1.6 0.00 0.00 0.00 33 1014.2
20260503230024 16 61 1.6 9.7 0.00 0.00 0.00 34 1014.2
20260503225045 16 100 0.0 6.4 0.00 0.00 0.00 33 1014.1
20260503224046 16 37 1.6 8.0 0.00 0.00 0.00 32 1014.2
20260503223024 16 353 1.6 9.7 0.00 0.00 0.00 33 1014.3
20260503222045 16 358 1.6 9.7 0.00 0.00 0.00 32 1014.3
20260503221106 16 55 1.6 9.7 0.00 0.00 0.00 31 1014.3
20260503220024 16 82 1.6 9.7 0.00 0.00 0.00 32 1014.5
20260503215002 16 49 1.6 12.9 0.00 0.00 0.00 34 1014.5
20260503214024 16 105 1.6 12.9 0.00 0.00 0.00 32 1014.6
20260503213025 16 31 1.6 8.0 0.00 0.00 0.00 33 1014.6
20260503212024 16 11 3.2 11.3 0.00 0.00 0.00 32 1014.7
20260503211024 16 151 1.6 12.9 0.00 0.00 0.00 35 1014.8
20260503210003 16 69 3.2 16.1 0.00 0.00 0.00 34 1014.7
20260503205003 16 31 3.2 14.5 0.00 0.00 0.00 33 1014.7
20260503204003 16 25 3.2 16.1 0.00 0.00 0.00 32 1014.7
20260503203003 16 3 3.2 14.5 0.00 0.00 0.00 33 1014.7
20260503202106 17 126 1.6 8.0 0.00 0.00 0.00 35 1014.7
20260503201003 17 18 1.6 11.3 0.00 0.00 0.00 35 1015.0
20260503200045 17 7 3.2 16.1 0.00 0.00 0.00 32 1015.2
20260503195024 17 143 1.6 11.3 0.00 0.00 0.00 34 1015.4
20260503194024 16 89 1.6 11.3 0.00 0.00 0.00 36 1015.6
20260503193024 16 31 3.2 17.7 0.00 0.00 0.00 38 1015.6
20260503192003 16 20 4.8 25.7 0.00 0.00 0.00 35 1015.8
20260503191024 17 160 3.2 12.9 0.00 0.00 0.00 35 1015.8
20260503190045 16 56 3.2 14.5 0.00 0.00 0.00 35 1015.9
20260503185003 16 66 3.2 16.1 0.00 0.00 0.00 34 1016.1
20260503184045 16 15 3.2 17.7 0.00 0.00 0.00 35 1016.1
20260503183022 16 84 3.2 11.3 0.00 0.00 0.00 39 1016.2
20260503182000 16 19 4.8 16.1 0.00 0.00 0.00 37 1016.4
20260503181000 16 91 1.6 12.9 0.00 0.00 0.00 42 1016.4
20260503180022 15 20 1.6 9.7 0.00 0.00 0.00 39 1016.7
20260503175000 15 16 3.2 14.5 0.00 0.00 0.00 40 1016.8
20260503174000 15 13 4.8 14.5 0.00 0.00 0.00 39 1016.8
20260503173000 15 59 3.2 16.1 0.00 0.00 0.00 42 1016.7
20260503172021 14 24 3.2 12.9 0.00 0.00 0.00 45 1016.9
20260503171042 13 19 4.8 19.3 0.00 0.00 0.00 39 1016.8